User: anonymous   Login
Location: Unspecified
(0.0000°N, 0.0000°E)
Time: 05:17:40
(UTC+00:00)
Language:

KAGAYAKI - Orbit

View from above orbital plane
View from above orbital plane
View from above satellite
View from above satellite

Ground track
Ground track

The orbit data is extracted from the following two-line orbital elements,

1 33495U 09002D   19082.44911749 -.00000018 +00000-0 +57041-5 0  9996
2 33495 098.3838 265.3158 0008896 141.0938 219.0910 14.72119730545193
Epoch (UTC): 23 March 2019 10:46:43
Eccentricity: 0.0008896
inclination: 98.3838°
perigee height: 648 km
apogee height: 660 km
right ascension of ascending node: 265.3158°
argument of perigee: 141.0938°
revolutions per day: 14.72119730
mean anomaly at epoch: 219.0910°
orbit number at epoch: 54519

The dashed part of the orbit path shows where the satellite is in the earth's shadow,  

DLR